JQ1YUX-13 Tokyo Ota-ku JP current weather conditions

sailwx.info

Wind from 021

Air temperature 20.6° C
Dewpoint 19.2° C

Last reported at 2016-Oct-01 03:54 UTC.
Time now 2016-Oct-01 04:54 UTC

Location: N 35°35' E 139°40'.
View on Google Maps.

See reports from other nearby stations

  
Tides and Currents Weather Stations Pressure Air Temp Water Temp Dewpoint Dewpoint Depression Visibility Wind Speed Wind Dir Waves Ship Positions
date/time (UTC)wind fromknots sea level pressurealtimeterstation pressurevisibilityair tempwater tempwave heightnotes
2016-Oct-01 03:54 021 20.6
2016-Oct-01 03:24 028 0 21.1
2016-Oct-01 02:54 343 0 gusting 6 20.6
2016-Oct-01 02:24 321 20.6
2016-Oct-01 01:54 349 20.6
2016-Oct-01 01:24 030 20.6
2016-Oct-01 00:54 019 20.0
2016-Oct-01 00:24 011 19.4
2016-Sep-30 23:54 012 18.9
2016-Sep-30 23:24 005 18.3
2016-Sep-30 22:54 355 17.8
2016-Sep-30 22:24 355 17.8
2016-Sep-30 21:54 355 18.3
2016-Sep-30 21:24 355 17.8
2016-Sep-30 20:54 036 18.3
2016-Sep-30 20:24 345 18.3
2016-Sep-30 19:54 335 0 gusting 4 18.9
2016-Sep-30 19:24 355 2 gusting 6 20.0
2016-Sep-30 18:54 338 0 gusting 4 20.6
2016-Sep-30 17:54 334 20.6
2016-Sep-30 17:24 009 20.6
2016-Sep-30 16:54 026 20.6
2016-Sep-30 16:24 018 21.7
2016-Sep-30 15:54 328 21.7
2016-Sep-30 15:24 279 21.7
2016-Sep-30 14:54 211 22.2
2016-Sep-30 14:24 210 22.2
2016-Sep-30 13:54 211 22.2
2016-Sep-30 13:24 211 22.2
2016-Sep-30 12:54 210 22.2
2016-Sep-30 12:24 210 22.2
2016-Sep-30 11:54 211 22.2
2016-Sep-30 11:24 261 0 gusting 4 22.8
2016-Sep-30 10:54 157 22.2
2016-Sep-30 10:24 156 22.8
2016-Sep-30 09:54 153 22.8
2016-Sep-30 09:24 152 22.8
2016-Sep-30 08:54 164 22.8
2016-Sep-30 08:24 237 22.8
2016-Sep-30 07:54 175 23.3
2016-Sep-30 07:24 198 23.3
2016-Sep-30 06:54 198 23.3
2016-Sep-30 06:24 172 23.9
2016-Sep-30 05:54 248 24.4
2016-Sep-30 05:24 221 24.4
2016-Sep-30 04:54 184 24.4
2016-Sep-30 04:24 175 25.0
2016-Sep-30 03:54 035 24.4
2016-Sep-30 03:24 178 25.0
2016-Sep-30 02:54 223 25.0
2016-Sep-30 02:24 052 26.1
2016-Sep-30 02:09 044 25.0
2016-Sep-30 01:52 025 23.9
2016-Sep-30 01:39 025 24.4
2016-Sep-30 01:22 185 24.4
2016-Sep-30 01:09 023 24.4
2016-Sep-30 00:52 269 23.9
2016-Sep-30 00:39 029 22.8
2016-Sep-30 00:21 051 22.8
2016-Sep-30 00:09 019 22.8
2016-Sep-29 23:51 015 22.2
2016-Sep-29 23:39 026 21.7
2016-Sep-29 23:21 341 21.1
2016-Sep-29 23:09 029 0 gusting 5 21.1
2016-Sep-29 22:52 009 0 gusting 3 21.7
2016-Sep-29 22:22 034 21.1
2016-Sep-29 21:52 035 21.1
2016-Sep-29 21:22 20.6
2016-Sep-29 20:52 038 21.1
2016-Sep-29 20:22 009 21.1
2016-Sep-29 19:52 009 21.1
2016-Sep-29 19:22 21.1
2016-Sep-29 18:52 009 20.6
2016-Sep-29 18:22 21.1
2016-Sep-29 17:52 005 20.6
2016-Sep-29 17:22 005 21.1
2016-Sep-29 16:52 009 21.1
2016-Sep-29 16:23 009 21.1
2016-Sep-29 15:52 033 6 gusting 6 21.1
2016-Sep-29 15:22 330 3 gusting 6 21.7
2016-Sep-29 14:52 034 22.8
2016-Sep-29 14:22 055 23.3
2016-Sep-29 13:52 349 23.3
2016-Sep-29 13:22 348 23.9
2016-Sep-29 12:52 345 23.9
2016-Sep-29 12:22 351 24.4
2016-Sep-29 11:52 350 24.4
2016-Sep-29 11:22 315 24.4
2016-Sep-29 10:52 315 24.4
2016-Sep-29 10:22 318 24.4
2016-Sep-29 09:52 319 24.4
2016-Sep-29 09:22 009 25.0
2016-Sep-29 08:52 298 0 gusting 0 25.6
2016-Sep-29 08:23 024 26.1
2016-Sep-29 07:52 014 27.2
2016-Sep-29 07:22 012 27.8
2016-Sep-29 06:52 028 27.8
2016-Sep-29 06:22 309 27.8
2016-Sep-29 05:52 329 27.8
2016-Sep-29 05:22 018 27.2
2016-Sep-29 04:52 349 1 gusting 6 27.8
2016-Sep-29 04:22 28.3